Fortuna, CA

10:42 PM PST on November 11, 2019 (GMT -0800)
Rohnerville

Weather History for KFOT - July, 2019

Change the Weather History Date:

Tuesday, July 9, 2019

  Actual Average (KEKA) Record (KEKA)
Temperature  
Mean Temperature 62 °F -  
Max Temperature 68 °F 62 °F 76 °F (1985)
Min Temperature 57 °F 52 °F 46 °F (1894)
Degree Days  
Heating Degree Days 2    
Growing Degree Days 12 (Base 50)    
Moisture  
Dew Point 58 °F    
Average Humidity 79    
Maximum Humidity 94    
Minimum Humidity 68    
Precipitation  
Precipitation 0.00 in - - ()
Sea Level Pressure  
Sea Level Pressure 30.05 in    
Wind  
Wind Speed 6 mph (NW)    
Max Wind Speed 13 mph    
Max Gust Speed -    
Visibility 10 miles    
Events      
Averages and records for this station are not official NWS values.
T = Trace of Precipitation, MM = Missing Value Source: NWS Daily Summary

Daily Weather History Graph

Daily Weather History Graph

Search for Another Location

Airport or City:

Astronomy

Jul. 09, 2019 Rise Set
Actual Time 5:54 AM PDT 8:48 PM PDT
Civil Twilight 5:21 AM PDT 9:21 PM PDT
Nautical Twilight 4:40 AM PDT 10:02 PM PDT
Astronomical Twilight 3:52 AM PDT 10:50 PM PDT
Moon 1:52 PM PDT (7/9) 1:08 AM PDT (7/9)
Length of Visible Light 15h 59m
Length of Day
14h 54m
First Quarter, 54% of the Moon is Illuminated
Jul 9
First Quarter
Jul 16
Full
Jul 24
Last Quarter
Jul 31
New
Aug 7
First Quarter

Hourly Weather History & Observations

Time (PDT) Temp. Dew Point Humidity Pressure Visibility Wind Dir Wind Speed Gust Speed Precip Events Conditions
8:15 AM 57.2 °F 53.6 °F 88% 30.03 in 10.0 mi SE 4.6 mph - N/A   Overcast
8:35 AM 57.2 °F 53.6 °F 88% 30.04 in 10.0 mi SE 6.9 mph - N/A   Overcast
8:55 AM 59.0 °F 53.6 °F 82% 30.03 in 9.0 mi SE 5.8 mph - N/A   Mostly Cloudy
9:15 AM 59.0 °F 53.6 °F 82% 30.03 in 8.0 mi SE 4.6 mph - N/A   Mostly Cloudy
9:35 AM 62.6 °F 55.4 °F 77% 30.03 in 10.0 mi SSE 4.6 mph - N/A   Mostly Cloudy
9:55 AM 62.6 °F 55.4 °F 77% 30.03 in 10.0 mi SSE 3.5 mph - N/A   Partly Cloudy
10:15 AM 64.4 °F 57.2 °F 77% 30.03 in 10.0 mi Calm Calm - N/A   Clear
10:35 AM 66.2 °F 55.4 °F 68% 30.02 in 10.0 mi East 3.5 mph - N/A   Clear
10:55 AM 66.2 °F 57.2 °F 73% 30.03 in 10.0 mi Calm Calm - N/A   Clear
11:15 AM 66.2 °F 57.2 °F 73% 30.03 in 10.0 mi Calm Calm - N/A   Clear
11:35 AM 66.2 °F 55.4 °F 68% 30.04 in 10.0 mi Calm Calm - N/A   Clear
11:55 AM 66.2 °F 57.2 °F 73% 30.03 in 10.0 mi WNW 11.5 mph - N/A   Clear
12:15 PM 66.2 °F 57.2 °F 73% 30.04 in 10.0 mi NNW 8.1 mph - N/A   Clear
12:35 PM 68.0 °F 57.2 °F 68% 30.05 in 10.0 mi WNW 8.1 mph - N/A   Clear
12:55 PM 66.2 °F 57.2 °F 73% 30.05 in 10.0 mi NNW 6.9 mph - N/A   Clear
1:15 PM 68.0 °F 59.0 °F 73% 30.05 in 10.0 mi WNW 12.7 mph - N/A   Clear
1:35 PM 66.2 °F 59.0 °F 78% 30.06 in 10.0 mi NW 11.5 mph - N/A   Scattered Clouds
1:55 PM 64.4 °F 59.0 °F 83% 30.06 in 10.0 mi WNW 10.4 mph - N/A   Overcast
2:15 PM 66.2 °F 59.0 °F 78% 30.06 in 10.0 mi NW 10.4 mph - N/A   Overcast
2:35 PM 66.2 °F 59.0 °F 78% 30.05 in 10.0 mi NNW 9.2 mph - N/A   Scattered Clouds
2:55 PM 66.2 °F 59.0 °F 78% 30.05 in 10.0 mi NW 8.1 mph - N/A   Clear
3:15 PM 64.4 °F 59.0 °F 83% 30.05 in 10.0 mi WNW 9.2 mph - N/A   Clear
3:35 PM 66.2 °F 59.0 °F 78% 30.05 in 10.0 mi WNW 11.5 mph - N/A   Clear
3:55 PM 66.2 °F 59.0 °F 78% 30.05 in 10.0 mi WNW 11.5 mph - N/A   Scattered Clouds
4:15 PM 66.2 °F 59.0 °F 78% 30.05 in 10.0 mi WNW 11.5 mph - N/A   Mostly Cloudy
4:35 PM 66.2 °F 59.0 °F 78% 30.05 in 10.0 mi WNW 9.2 mph - N/A   Mostly Cloudy
4:55 PM 66.2 °F 59.0 °F 78% 30.05 in 10.0 mi WNW 10.4 mph - N/A   Overcast
5:15 PM 66.2 °F 59.0 °F 78% 30.05 in 10.0 mi NW 10.4 mph - N/A   Overcast
5:35 PM 66.2 °F 59.0 °F 78% 30.05 in 10.0 mi NNW 9.2 mph - N/A   Overcast
5:55 PM 68.0 °F 59.0 °F 73% 30.04 in 10.0 mi NW 8.1 mph - N/A   Overcast
6:15 PM 68.0 °F 60.8 °F 78% 30.04 in 10.0 mi North 9.2 mph - N/A   Overcast
6:35 PM 68.0 °F 60.8 °F 78% 30.04 in 10.0 mi North 6.9 mph - N/A   Overcast
6:55 PM 66.2 °F 59.0 °F 78% 30.05 in 10.0 mi North 9.2 mph - N/A   Overcast
7:15 PM 66.2 °F 60.8 °F 83% 30.05 in 10.0 mi North 6.9 mph - N/A   Overcast
7:35 PM 66.2 °F 60.8 °F 83% 30.05 in 10.0 mi North 6.9 mph - N/A   Overcast
7:55 PM 66.2 °F 59.0 °F 78% 30.05 in 10.0 mi NNW 8.1 mph - N/A   Overcast
8:15 PM 66.2 °F 59.0 °F 78% 30.05 in 10.0 mi North 8.1 mph - N/A   Overcast
8:35 PM 64.4 °F 59.0 °F 83% 30.06 in 10.0 mi North 8.1 mph - N/A   Overcast
8:55 PM 64.4 °F 59.0 °F 83% 30.06 in 10.0 mi North 6.9 mph - N/A   Overcast
9:15 PM 64.4 °F 59.0 °F 83% 30.06 in 10.0 mi NNW 6.9 mph - N/A   Overcast
9:35 PM 64.4 °F 59.0 °F 83% 30.07 in 10.0 mi NW 5.8 mph - N/A   Overcast
9:55 PM 64.4 °F 59.0 °F 83% 30.07 in 10.0 mi NW 4.6 mph - N/A   Overcast
10:15 PM 62.6 °F 59.0 °F 88% 30.07 in 10.0 mi NW 3.5 mph - N/A   Overcast
10:35 PM 62.6 °F 59.0 °F 88% 30.07 in 10.0 mi WNW 3.5 mph - N/A   Overcast
10:55 PM 62.6 °F 59.0 °F 88% 30.07 in 10.0 mi WNW 5.8 mph - N/A   Overcast
11:15 PM 62.6 °F 59.0 °F 88% 30.07 in 10.0 mi WNW 5.8 mph - N/A   Overcast
11:35 PM 62.6 °F 59.0 °F 88% 30.07 in 10.0 mi WNW 3.5 mph - N/A   Overcast
11:55 PM 60.8 °F 59.0 °F 94% 30.07 in 10.0 mi NNW 3.5 mph - N/A   Overcast